Weather Roundup
Issued by NWS Chicago, IL

Home | Current Version | Previous Version | Text Only | Print | Product List | Glossary On
Versions: 1 2 3 4 5 6 7 8 9 10 11 12 13 14 15 16 17 18 19 20 21 22 23 24 25 26 27 28 29 30 31 32 33 34 35 36 37 38 39 40 41 42 43 44 45 46 47 48 49 50
000
NZUS59 KLOT 211400
HRRLOT

CHICAGO AREA WEATHER ROUNDUP
NATIONAL WEATHER SERVICE CHICAGO/ROMEOVILLE IL
900 AM CDT SUN SEP 21 2014

NOTE: "FAIR" INDICATES FEW OR NO CLOUDS BELOW 12,000 FEET WITH NO
SIGNIFICANT WEATHER AND/OR OBSTRUCTIONS TO VISIBILITY.

* THESE STATIONS ARE NOT UNDER NWS QUALITY CONTROL. THEY ALSO MAY NOT
  REPORT WEATHER SUCH AS PRECIPITATION OR FOG.

ILZ005-006-012>014-019>023-211500-
NORTHEAST ILLINOIS

CITY           SKY/WX    TMP DP  RH WIND       PRES   REMARKS
OHARE          PTSUNNY   60  50  69 NW16G24   29.82R
MIDWAY         PTSUNNY   62  52  69 W18G26    29.83R
AURORA         CLOUDY    59  51  75 W13G23    29.86R
WAUKEGAN       CLOUDY    58  50  75 VRB7G22   29.80R
DUPAGE AIRPORT PTSUNNY   59  51  75 W17       29.84R
WHEELING       CLOUDY    60  50  69 W15G23    29.83R
NORTHERLY IS     N/A     61  49  64 W12         N/A
$$

WIZ051-052-058>065-066-070>072-211500-
SOUTHEAST WISCONSIN

CITY           SKY/WX    TMP DP  RH WIND       PRES   REMARKS
MILWAUKEE      DRIZZLE   56  51  84 W13G26    29.79R
KENOSHA*       PTSUNNY   58  51  78 W15G26    29.80R
RACINE*        CLOUDY    58  50  75 NW12G21   29.80R
WAUKESHA       DRIZZLE   52  52 100 W18G25    29.81R FOG
$$

INZ001>003-010>013-019-020-211500-
NORTHWEST INDIANA

CITY           SKY/WX    TMP DP  RH WIND       PRES   REMARKS
GARY*          MOSUNNY   63  52  67 W20       29.83R
MICHIGAN CITY* NOT AVBL
RENSSELAER*    NOT AVBL
VALPARAISO     MOSUNNY   60  52  74 W18G24    29.82S
$$

LMZ740>746-211500-
SOUTHERN LAKE MICHIGAN

STATION/POSITION TIME  SKY/WX   TEMP WIND        PRES    VSBY
                                AIR  DIR/SP/G
                 (UTC)          (F)  (DEG/KT/KT) (MB)    (MI)
HARRISON CRIB    1300            59  280/ 23/ 29   N/A
BURNHAM HARBOR   1400            61  330/ 10/ 14   N/A
CALUMET HARBOR   1300            61  270/  7/ 17 1008.5R
BURNS HARBOR     NOT AVBL
MICHIGAN CITY    1300            61  250/ 29/ 33   N/A
$$

ABBREVIATIONS USED IN REMARKS
   TC - TEMPERATURE IN CELSIUS
  WCI - WIND CHILL INDEX
   HX - HEAT INDEX
  VSB - VISIBILITY
$$



USA.gov is the U.S. government's official web portal to all federal, state and local government web resources and services.